Aérodrome :
LOGIN :

S'inscrire | Disclaimer

   EN    FR    IT 

 










Légende :    VFR   VFR Marginal   IFR   IFR Intensif   IFR Très Intensif
Visi : 
Plafond : 
>= 8 km
>= 3000ft
5 à 8 km
1000 à 3000 ft
1500m à 5 km
500 à 1000 ft
800 à 1500m
200 à 500 ft
< 800m
< 200 ft
Symboles :   Orages  Brouillard  Fortes neiges  Fortes précipitations  Vent > 20 kt
SIGMETs :   Divers  Orages  Givrage  Turbulence  Onde Orograph.  Cendres Volcan.







- Altitude de l'aérodrome : 82 ft
- Code IATA : ALG


DAAG - Alger Houari Boumedienne

DERNIER METAR :
  • 170730Z 08005KT 020V120 CAVOK 26/12 Q1017

METARs EXPIRÉS :
  • 170700Z 00000KT CAVOK 23/13 Q1017
  • 170630Z 00000KT CAVOK 21/13 Q1017
  • 170600Z 00000KT CAVOK 18/14 Q1017
  • 170530Z 17003KT CAVOK 15/12 Q1017
  • 170500Z 00000KT CAVOK 15/13 Q1017

TAF TAF DAAG
Valide du 17 à 06h jusqu'au 18 à 06h UTC


170500Z 1706/1806 VRB02KT CAVOK
BECMG 1708/1711 04010KT
PROB30
TEMPO 1712/1717 04015G25KT FEW026CB
BECMG 1720/1723 VRB02KT
Pas de NOTAMs connus pour ce terrain.



MET'MAP, la Météo Aéronautique d'un coup d'oeil ! - Copyright ORBIFLY Décembre 2007 - Disclaimer

ORBIFLY MET'MAP TEAM :

Programmation & Développement : Alexandra Zaïnal
Conception & Développement : Baudouin d'Aumeries
Co-Programmation & Développement : Marc-Olivier Méhu
Soutien technique & logistique : Manuel Goepfert

Contact : metmap@orbifly.com




SOURCES & CREDITS :

   NOAA